Location: Aiyekoto
(8.4333°N, 4.3667°E)
Time: 17:08:50
(UTC+00:00)

N. Korean satellite - Visible Passes

Search period start: 04 August 2021 00:00
Search period end: 14 August 2021 00:00
Orbit: 451 x 498 km, 97.2° (Epoch: 03 August)

Date Brightness Start Highest point End Pass type
(mag) Time Alt. Az. Time Alt. Az. Time Alt. Az.
04 Aug 8.2 04:20:09 10° NE 04:23:15 32° E 04:26:19 10° SSE visible
05 Aug 9.6 03:54:39 10° E 03:55:47 11° E 03:56:55 10° ESE visible
06 Aug 6.7 04:58:07 10° N 05:01:24 45° WNW 05:04:40 10° SSW visible
07 Aug 7.3 04:30:39 10° NNE 04:33:59 51° E 04:37:16 10° S visible
08 Aug 9.3 04:04:13 10° ENE 04:06:30 17° E 04:08:47 10° SE visible
09 Aug 7.4 05:09:06 10° NNW 05:12:05 29° WNW 05:15:04 10° SW visible
10 Aug 6.4 04:41:15 10° NNE 04:44:39 84° ESE 04:48:02 10° S visible
11 Aug 8.6 04:14:20 10° NE 04:17:12 25° E 04:20:02 10° SSE visible
13 Aug 6.4 04:51:58 10° N 04:55:18 59° WNW 04:58:38 10° SSW visible
